Terminal Aerodrome Forecast
Issued by NWS

Home | Current Version | Previous Version | Text Only | Print | Product List | Glossary On
Versions: 1 2 3 4 5 6 7 8 9 10 11 12
000
FTUS41 KCAR 070539
TAFBHB
TAF
KBHB 070539Z 0706/0806 21005KT P6SM SCT100
     FM071300 31008G15KT P6SM FEW200
     FM080400 03006KT P6SM SCT120
      AMD LTD TO CLD VIS AND WIND=

USA.gov is the U.S. government's official web portal to all federal, state and local government web resources and services.